Location: Squamish
(49.7000°N, 123.1500°W)
Time: 09:39:09
(UTC-07:00)

Daily predictions for brighter satellites

Satellite Brightness Start Highest point End
(mag) Time Altitude Azimuth Time Altitude Azimuth Time Altitude Azimuth
Cosmos 2082 Rocket 3.1 21:37:53 10° SSE 21:42:36 28° ESE 21:47:17 10° NE
COSMOS 2406 4.0 21:40:54 10° SW 21:46:33 60° WNW 21:52:13 10° NNE
Cosmos 1025 Rocket 3.0 21:42:57 10° S 21:47:13 86° E 21:51:31 10° N
Cosmos 1726 Rocket 3.6 21:43:29 10° N 21:47:50 72° E 21:52:08 10° SSE
DEBRIS 4.3 21:46:40 10° SW 21:50:39 61° SSE 22:05:18 10° ENE
COSMOS 2487 3.3 21:48:07 10° S 21:51:20 32° ESE 21:54:35 10° NE
SPOT 5 2.9 21:47:23 10° SSE 21:51:35 54° ENE 21:55:57 10° N
Cosmos 1656 3.7 21:48:31 10° NNW 21:54:00 79° ENE 21:59:30 10° SSE
Cosmos 1697 Rocket 2.9 21:49:58 10° NNW 21:55:34 62° ENE 22:01:08 10° SE
ISS -3.9 21:54:41 10° WSW 21:58:00 81° SSE 22:01:18 10° ENE
SL-08 RB Rocket 4.0 21:54:58 10° SSE 21:59:20 55° ENE 22:03:44 10° N
Cosmos 1452 Rocket 3.6 21:54:33 10° NNW 21:59:51 71° ENE 22:05:06 10° SSE
Cosmos 2369 4.0 21:55:14 10° NNW 22:00:58 71° WSW 22:06:38 10° SSE
Cosmos 2341 Rocket 4.1 21:57:55 10° N 22:04:18 88° WSW 22:10:42 10° S
USA 245 2.2 22:02:01 10° SSE 22:04:20 54° ENE 22:06:33 10° N
SL-16 R/B 3.9 22:00:40 10° NNW 22:05:13 24° NE 22:09:45 10° E
Meteor 1-29 4.3 22:04:02 10° N 22:07:15 41° WNW 22:10:27 10° SW
Iridium 43 3.9 22:05:21 10° N 22:07:29 42° E 22:09:28 12° SSE
Cosmos 2058 Rocket 3.1 22:03:36 10° N 22:08:04 85° E 22:12:32 10° S
ERS-1 Rocket 3.5 22:03:16 10° S 22:08:14 60° WSW 22:13:14 10° NNW
ATLAS CENTAUR R/B 3.2 22:07:37 10° NNW 22:10:30 21° NNE 22:13:21 10° E
MetOp-A 4.3 22:05:19 10° S 22:10:40 76° WSW 22:16:04 10° NNW
Cosmos 2218 Rocket 4.2 22:06:13 10° N 22:12:20 60° ENE 22:18:26 10° SSE
Cosmos 1271 Rocket 4.2 22:09:27 10° NNE 22:12:42 24° ENE 22:15:47 11° ESE
Cosmos 1437 Rocket 4.1 22:11:14 10° NNW 22:14:49 37° W 22:18:26 10° SSW
Cosmos 1833 Rocket 3.0 22:09:48 10° S 22:15:05 44° ESE 22:20:25 10° NE
SPOT 1/Viking Rocket 3.6 22:10:56 10° SSE 22:16:04 70° ENE 22:21:13 10° N
MOS 1-B Rocket 4.4 22:11:26 10° S 22:17:22 72° WSW 22:24:16 10° NNW
YAOGAN 11 4.3 22:17:44 10° S 22:22:01 69° WSW 22:26:24 10° NNW
Cosmos 1515 4.0 22:21:28 10° SSW 22:25:15 70° WNW 22:29:05 10° N
Cosmos 1812 Rocket 4.2 22:22:47 10° N 22:27:07 44° ENE 22:30:39 14° SE
H-2A R/B 2.8 22:25:55 13° SE 22:29:39 43° ENE 22:33:56 10° N
Cosmos 1066 Rocket 4.2 22:31:37 10° S 22:37:08 73° E 22:42:50 10° NNE
Cosmos 2181 Rocket 4.2 22:31:10 10° SSW 22:37:31 80° W 22:43:49 10° N
Meteor 2-21 4.4 22:33:21 10° N 22:39:26 84° E 22:44:59 13° S
Cosmos 1626 Rocket 3.7 22:35:57 12° S 22:39:47 55° E 22:44:03 10° NNE
USA 229 DEB 3.9 22:33:45 10° NW 22:40:55 88° SW 22:47:09 15° SE
USA 229 3.9 22:33:52 10° NW 22:41:01 89° SW 22:47:15 15° SE
Cosmos 2360 Rocket 4.1 22:38:36 10° N 22:42:52 21° NE 22:47:07 10° E
Tiangong 2 2.6 22:40:23 10° WSW 22:42:53 21° S 22:43:45 19° SSE
Meteor 2-21 Rocket 4.4 22:38:14 10° N 22:44:19 76° ENE 22:49:31 15° SSE
Cosmos 1953 3.7 22:40:49 10° N 22:44:21 27° ENE 22:46:52 15° ESE
Cosmos 1980 Rocket 2.2 22:39:09 10° NNW 22:44:52 85° ENE 22:49:22 17° SSE
Cosmos 2228 3.8 22:41:04 10° NNW 22:45:13 47° W 22:49:18 10° SSW
ARGOS 3.9 22:44:24 10° S 22:49:38 48° W 22:54:54 10° NNW
USA 234 4.3 22:44:16 10° ENE 22:50:29 48° N 22:56:41 10° WNW
PSLV R/B 3.8 22:49:23 22° SE 22:50:43 36° ENE 22:53:21 10° N
Cosmos 1766 3.2 22:46:50 10° N 22:50:46 75° E 22:53:28 19° SSE
Cosmos 2322 Rocket 2.9 22:51:13 10° NNW 22:56:43 45° NE 23:01:16 15° ESE
Landsat 7 4.0 22:57:46 16° S 23:01:37 70° WSW 23:06:24 10° NNW
SL-19 R/B 4.5 23:01:02 21° SE 23:03:31 58° ENE 23:07:00 10° N
H-2A R/B 2.5 22:59:16 13° S 23:03:40 53° W 23:08:41 10° NNW
Meteor 1-4 Rocket 3.8 23:00:45 10° NNW 23:04:05 36° W 23:06:54 13° SSW
Cosmos 1470 4.3 23:02:18 10° NNE 23:05:41 26° ENE 23:07:46 17° ESE
Lacrosse 5 rocket 1.9 23:02:15 10° NW 23:06:53 66° NNE 23:10:52 14° ESE
Meteor 1-21 4.3 23:06:07 15° S 23:10:50 70° E 23:16:36 10° NNE
Cosmos-2242 4.4 23:08:10 10° NNE 23:11:51 26° ENE 23:14:10 17° ESE
Cosmos 2366 rocket 4.4 23:08:11 10° NNW 23:14:12 58° W 23:19:40 13° SSW
Cosmos 1602 Rocket 3.8 23:11:37 12° SSW 23:15:36 68° W 23:19:56 10° N
Terra 2.0 23:13:16 19° S 23:16:38 71° WSW 23:21:25 10° NNW
Cosmos 1805 3.2 23:15:20 10° N 23:19:16 85° E 23:21:22 26° SSE
Cosmos 389 Rocket 2.5 23:21:40 10° N 23:25:08 68° ENE 23:26:33 32° SSE
deb Chang Zheng 4 3.5 23:22:00 10° NNE 23:26:20 76° ESE 23:29:07 22° S
Cosmos 2082 Rocket 2.8 23:20:45 10° SW 23:26:20 57° NW 23:31:56 10° NNE
Cosmos 1269 Rocket 4.0 23:21:50 11° SSW 23:26:59 87° ESE 23:32:20 10° NNE
Cosmos 1758 3.2 23:23:39 10° N 23:27:40 83° E 23:29:40 29° SSE
DMSP B5D2-2 4.3 23:23:29 10° NNE 23:28:47 74° WNW 23:33:46 11° SSW
Cosmos 1331 Rocket 4.0 23:26:53 10° NNW 23:32:06 80° ENE 23:35:07 25° SSE
Cosmos 1048 Rocket 4.0 23:28:36 10° SSW 23:33:45 81° WNW 23:38:59 10° NNE
Meteor 2-8 Rocket 4.5 23:29:45 20° S 23:34:04 70° E 23:40:12 10° NNE
ISS -3.2 23:31:21 10° W 23:34:37 59° N 23:37:53 10° E
Iridium 2 4.2 23:31:57 10° NNW 23:35:40 55° W 23:37:46 23° SSW
Cosmos 1110 Rocket 4.0 23:30:49 10° NNW 23:36:08 86° WSW 23:39:08 26° SSE
Cosmos 1697 Rocket 4.3 23:34:37 10° NW 23:39:07 25° WSW 23:43:07 12° SSW
Cosmos 1302 Rocket 4.3 23:36:10 10° NNW 23:41:24 59° ENE 23:44:33 24° SE
Spot 4 3.9 23:39:52 26° S 23:42:38 74° WSW 23:47:29 10° NNW
Lacrosse 5 2.7 23:43:44 27° SSE 23:44:45 30° SE 23:49:07 10° ENE
Cosmos 1271 Rocket 4.1 23:45:17 10° NNW 23:48:47 32° W 23:50:59 18° SW
ATLAS CENTAUR R/B 1.1 23:46:11 10° NW 23:49:52 66° SW 23:51:02 39° SSE
SL-16 R/B 2.2 23:44:21 10° NNW 23:50:03 84° WSW 23:53:16 27° SSE
Cosmos 1842 4.0 23:49:30 19° SW 23:52:06 49° WNW 23:55:58 10° N
DELTA 2 DEB (DPAF) 4.3 23:50:05 28° S 23:52:23 66° WSW 23:56:51 10° NNW
SeaSat 1 3.2 23:50:22 18° ESE 23:53:48 46° NE 23:58:32 10° NNW
